Location: Home
(42.5358°N, 72.7383°W)
Time: 21:20:57
(UTC-05:00)

Altair - Pass Details

Date: 14 December 2021
Orbit: 1501 x 1683 km, 47.2° (Epoch: 26 January)

Event Time Altitude Azimuth Distance (km) Brightness Sun altitude
Rises 18:16:50 0° 295° (WNW) 4,732 10.9 -21.0°
Reaches altitude 10° 18:19:57 10° 293° (WNW) 3,724 10.3 -21.5°
Maximum altitude 18:29:12 68° 214° (SSW) 1,609 7.6 -23.2°
Enters shadow 18:36:47 16° 135° (SE) 3,187 8.8 -24.6°
